www.pogodaiklimat.ru

Погода и климат >> Архив погоды >> Канада >> Dubawnt Lake


ПОГОДА в Dubawnt Lake

  • Прогноз погоды в Dubawnt Lake
  • Монитор погоды в Dubawnt Lake
  • Климат города

АРХИВ ПОГОДЫ в Dubawnt Lake

Время (UTC), дата Ветер
(напр.,м/с)
 
Видим.   Явления Облачность Т
(С)
Тd
(С)
f
(%)
Тe
(С)
Тes
(С)
Комфортность P
(гПа)
Po
(гПа)
Тmin
(С)
Tmax
(С)
R
(мм)
R24
(мм)
S
(см)
00 18.05 СЗ 6 16 км 5/0 2000 м
[]
+14.5 -4.6 26 +13 +14 1025.5 962.7 -5.5 +15.3
03 18.05 СЗ 2 16 км ясно +10.1 -4.3 36 +9 +9 1025.6 963.0
06 18.05 СЗ 1 16 км 10/0 2000 м
[]
+5.2 -3.7 53 +5 +5 1026.7 964.0 -5.5 +15.3 23
09 18.05 З 3 16 км ясно -0.3 -3.9 77 -4 -4 1027.0 964.2
12 18.05 З 2 16 км ясно +0.3 -4.1 72 -2 -1 1027.2 964.4 -2.6 +15.3
15 18.05 СЗ 3 16 км ясно +10.1 -4.5 35 +9 +14 1027.2 964.7
18 18.05 СЗ 5 16 км ясно +12.0 -7.3 25 +10 +17 1027.1 964.5 -2.6 +12.8
21 18.05 С 3 16 км ясно +13.9 -8.1 21 +13 +21 1026.9 964.1
00 19.05 С 3 16 км ясно +14.8 -7.4 21 +15 +18 1025.9 963.2 -2.6 +15.3
03 19.05 ЮЗ 1 16 км ясно +10.3 -4.6 35 +11 +11 1025.2 962.9
06 19.05 ЮЗ 3 16 км ясно +4.0 -4.0 56 +1 +1 1025.2 962.6 -2.6 +15.3 19
09 19.05 Ю 5 16 км ясно +6.7 -6.5 38 +3 +3 1023.7 961.5
12 19.05 ЮЗ 5 16 км 9/0
[]
+8.7 -4.8 38 +6 +6 1022.1 960.1 +1.7 +15.3
15 19.05 З 7 16 км 3/0
[]
+15.5 -1.5 31 +14 +16 1019.8 958.1
18 19.05 СЗ 7 16 км 5/0
[]
+20.1 +1.1 28 +20 +23 1018.9 957.1 +1.7 +20.9
21 19.05 З 6 16 км 3/0
[]
+19.8 +1.3 29 +20 +23 1018.5 956.9
00 20.05 З 7 16 км 3/0
[]
+21.5 -0.2 23 +21 +22 комфорт 1016.5 955.2 +3.6 +23.0
03 20.05 З 2 16 км 10/0
[]
+18.4 +0.2 29 +19 +19 1016.0 954.9
06 20.05 СВ 2 16 км 10/0
[]
+8.2 +2.0 65 +7 +7 1017.5 956.1 +3.6 +23.0 221
09 20.05 Ю 3 16 км ясно +3.9 +0.6 79 +1 +1 1017.0 955.3
12 20.05 СВ 2 16 км ясно +5.4 +1.8 78 +3 +4 1016.7 955.2 +1.9 +23.0
15 20.05 Ю 2 16 км ясно +16.8 +1.6 36 +17 +25 1015.4 954.4
18 20.05 ЮЗ 3 16 км ясно +23.5 -2.8 17 +22 +33 комфорт 1013.8 952.8 +1.9 +23.9
21 20.05 ЮЗ 5 16 км ясно +24.6 -3.6 15 +23 +28 комфорт 1012.5 951.4
00 21.05 ЮЗ 5 16 км 5/0
[]
+24.3 +1.4 22 +23 +25 комфорт 1011.3 950.3 +1.9 +25.7
03 21.05 З 1 16 км ясно +17.5 +1.2 33 +19 +19 1010.3 949.6
06 21.05 Ю 3 16 км ясно +9.4 +1.5 58 +8 +8 1010.4 949.6 +1.9 +25.7 20
09 21.05 СЗ 1 16 км ясно +4.5 +0.4 75 +5 +5 1010.5 949.5
12 21.05 СВ 2 16 км ясно +5.8 +3.3 84 +4 +5 1010.5 949.6 +3.2 +25.7
15 21.05 В 2 16 км ясно +14.4 +5.4 55 +14 +22 1010.3 949.5
18 21.05 В 4 16 км ясно +22.1 +5.2 33 +22 +30 комфорт 1010.1 949.3 +3.2 +22.2
00 22.05 В 6 16 км н/о +22.7 +2.4 26 +22 +22 комфорт 1010.9 949.9
03 22.05 В 6 16 км ясно +16.1 +3.3 42 +15 +15 1012.4 951.4
06 22.05 В 3 16 км ясно +10.0 +3.5 64 +8 +8 1013.9 952.9 1
09 22.05 В 4 16 км ясно +6.6 +3.1 78 +3 +3 1015.9 953.7
12 22.05 В 4 16 км ясно +5.9 +2.4 78 +2 +3 1015.7 954.4 +5.1
15 22.05 В 4 16 км 5/0
[]
+12.8 +3.3 52 +11 +15 1016.3 955.0
18 22.05 Ю 5 16 км ясно +20.0 +2.8 32 +20 +26 1015.7 954.5 +20.1
21 22.05 Ю 6 16 км ясно +25.4 +4.0 25 +25 +28 комфорт 1014.4 953.3
00 23.05 Ю 6 16 км 5/0
[]
+26.3 +3.3 23 +25 +26 комфорт 1012.9 951.9 +5.1 +27.4
03 23.05 Ю 3 14 км ясно +22.0 +3.8 30 +22 +22 комфорт 1012.4 951.6
06 23.05 Ю 4 16 км ясно +17.6 +4.0 40 +17 +17 1012.8 952.1 +5.1 +27.4 21
09 23.05 Ю 6 16 км ясно +17.2 +4.9 44 +16 +16 1012.3 951.9
12 23.05 ЮЗ 6 16 км ясно +17.0 +6.9 51 +16 +17 1012.2 951.8 +16.4 +27.4
15 23.05 З 4 16 км ясно +24.6 +6.3 31 +25 +29 комфорт 1011.7 951.5
18 23.05 З 7 16 км ясно +29.2 +3.7 20 +27 +31 жарко 1011.1 951.0 +16.4 +29.2
21 23.05 ЮЗ 6 16 км ясно +30.9 +2.6 16 +28 +33 жарко 1010.2 950.2
00 24.05 З 5 16 км ясно +30.5 +3.2 18 +28 +30 жарко 1009.4 949.4 +16.4 +31.2
03 24.05 ЮЗ 2 16 км ясно +23.3 +7.7 37 +24 +24 комфорт 1009.1 949.2
06 24.05 ЮЗ 2 16 км ясно +18.2 +6.2 45 +19 +19 1009.4 949.4 +16.4 +31.2 181
09 24.05 ЮЗ 1 16 км ясно +11.8 +5.7 66 +13 +13 1009.6 949.4
12 24.05 Ю 1 16 км ясно +12.5 +7.3 71 +13 +14 1009.5 949.3 +9.4 +31.2
15 24.05 В 1 16 км ясно +26.0 +7.2 30 +26 +34 жарко 1008.4 948.6
18 24.05 СВ 5 16 км ясно +30.1 +4.9 20 +28 +34 жарко 1006.9 947.1 +9.4 +30.3
21 24.05 В 4 16 км 9/0
[]
+31.3 +3.7 17 +29 +33 жарко 1005.8 945.8

 

Местоположение метеостанции Dubawnt Lake (Канада): широта 63.23 долгота -101.70 высота над уровнем моря 237 м.

В архиве по умолчанию представлена погода в Dubawnt Lake за последнюю неделю. Архивные данные за месяц целиком и за предыдущие месяцы, начиная с января 2011 года, Вы можете получить, выбрав интересующий диапазон дат из раскрывающегося списка и нажав кнопку "Ввод!".


*Определитесь, кто Вы:
робот инопланетянин человек

Внимание! Время в таблицах - всемирное. Для получения местного времени необходимо прибавить поправку, которая в Dubawnt Lake равна -6 ч.

Смотрите также архив погоды в соседних городах и на ближайших метеорологических станциях:

Погода в Hanbury River ARS (Канада) (176 км)
Погода в Robertson Lake (Канада) (211 км)
Погода в Baker Lake Airport (Канада) (302 км)
Погода в Baker Lake Climate (Канада) (305 км)
Погода в Fort Reliance (aut) (Канада) (379 км)
Погода в Porter Lake (Канада) (387 км)
Погода в Back River MAPS (Канада) (402 км)
Погода в Lustel Ke A (Канада) (461 км)
Погода в Arviat Climate (Канада) (462 км)
Погода в Arviat (Канада) (462 км)

Пояснения к столбцам:

Ветер - указаны скорость ветра в м/с - средняя за 10 мин, порывы в срок и между сроками (в фигурных скобках) и направление, откуда дует ветер: С - северный, СВ - северо-восточный, В - восточный, ЮВ - юго-восточный, Ю - южный, ЮЗ - юго-западный, З - западный, СЗ - северо-западный.
Видимость - горизонтальная дальность видимости в метрах или километрах. При видимости от 1 до 10 км при отсутствии осадков обычно наблюдается дымка, при ухудшении видимости до 1 км и менее - туман. В сухую погоду видимость может ухудшаться дымом, пылью или мглою.
Явления - указаны атмосферные явления, наблюдавшиеся в срок или в последний час перед сроком; фигурными скобками обозначены явления, наблюдавшиеся между сроками (за 1-3 часа до срока); квадратными скобками обозначены град или гололедные отложения с указанием их диаметра в мм.
Облачность - указаны через наклонную черту общая и нижняя облачность в баллах и высота нижней границы облаков в метрах; квадратными скобками обозначены формы облаков: Ci - перистые, Cs - перисто-слоистые, Cc - перисто-кучевые, Ac - высококучевые, As - высокослоистые, Sc - слоисто-кучевые, Ns - слоисто-дождевые, Cu - кучевые, Cb - кучево-дождевые. Подробнее классификацию облаков см. в Атласе облаков (PDF).
T - Температура воздуха - температура, измеренная на высоте 2 м над землей.
Td - Температура точки росы - температура, при понижении до которой содержащийся в воздухе водяной пар достигнет насыщения.
f - Относительная влажность воздуха - влажноcть воздуха, измеренная на высоте 2 м над землей.
Te - Эффективная температура - температура, которую ощущает одетый по сезону человек в тени. Характеристика душности погоды. При расчете учитывается влияние влажности воздуха и скорости ветра на теплоощущения человека.
Tes - Эффективная температура на солнце - температура, которую ощущает человек, с поправкой на солнечный нагрев. Характеристика знойности погоды. Зависит от высоты солнца над горизонтом, облачности и скорости ветра. Ночью, в пасмурную погоду, а также при ветре 12 м/с и более поправка равна нулю.
P - Атмосферное давление - приведенное к уровню моря атмосферное давление.
Po - Атмосферное давление - измеренное на уровне метеостанции атмосферное давление.
Tmin - Минимальная температура - минимум температуры воздуха на высоте 2 м над землей.
Tmax - Максимальная температура - максимум температуры воздуха на высоте 2 м над землей.
R - Количество осадков - Количество выпавших осадков за период времени, мм. При наведении курсора мыши на число - период времени, за который выпало указанное количество осадков.
R24 - Количество осадков - Количество выпавших осадков за 24 часа, мм.
S - Снежный покров - Высота снежного покрова, см. При наведении курсора мыши на число - состояние снежного покрова и степень покрытия местности в баллах.